SCP
0 0 0 0 0 0 0 0 0 0 0 0 0 0 0 0 0 0 0 0 0 0 0 0 0 0 0 0 0 0 0 0 0 0 0 0 0 0 0 0 0 0 0 0
0 0 0 0 0 0 0 0 0 0 0 0 0 0 0 0 0 0 0 0 0 0 0 0 0 0 0 0 0 0 0 0 0 0 0 0 0 0 0 0 0 0 0 0
0 0 0 0 0 0 0 0 0 0 0 0 0 0 0 0 0 0 0 0 0 0 0 0 0 0 0 0 0 0 0 0 0 0 0 0 0 0 0 0 0 0 0 0
0 0 0 0 0 0 0 0 0 0 0 0 0 0 0 0 0 0 0 0 0 0 0 0 0 0 0 0 0 0 0 0 0 0 0 0 0 0 0 0 0 0 0 0
0 0 0 0 0 0 0 0 0 0 0 0 0 0 0 0 0 0 0 0 0 0 0 0 0 0 0 0 0 0 0 0 0 0 0 0 0 0 0 0 0 0 0 0
0 0 0 0 0 0 0 0 0 0 0 0 0 0 0 0 0 0 0 0 0 0 0 0 0 0 0 0 0 0 0 0 0 0 0 0 0 0 0 0 0 0 0 0
0 0 0 0 0 0 0 0 0 0 0 0 0 0 0 0 0 0 0 0 0 0 0 0 0 0 0 0 0 0 0 0 0 0 0 0 0 0 0 0 0 0 0 0
0 0 0 0 0 0 0 0 0 0 0 0 0 0 0 0 0 0 0 0 0 0 0 0 0 0 0 0 0 0 0 0 0 0 0 0 0 0 0 0 0 0 0 0
0 0 0 0 0 0 0 0 0 0 0 0 0 0 0 0 0 0 0 0 0 0 0 0 0 0 0 0 0 0 0 0 0 0 0 0 0 0 0 0 0 0 0 0
0 0 0 0 0 0 0 0 0 0 0 0 0 0 0 0 0 0 0 0 0 0 0 0 0 0 0 0 0 0 0 0 0 0 0 0 0 0 0 0 0 0 0 0
0 0 0 0 0 0 0 0 0 0 0 0 0 0 0 0 0 0 0 0 0 0 0 0 0 0 0 0 0 0 0 0 0 0 0 0 0 0 0 0 0 0 0 0
0 0 0 0 0 0 0 0 0 0 0 0 0 0 0 0 0 0 0 0 0 0 0 0 0 0 0 0 0 0 0 0 0 0 0 0 0 0 0 0 0 0 0 0
0 0 0 0 0 0 0 0 0 0 0 0 0 0 0 0 0 0 0 0 0 0 0 0 0 0 0 0 0 0 0 0 0 0 0 0 0 0 0 0 0 0 0 0
0 0 0 0 0 0 0 0 0 0 0 0 0 0 0 0 0 0 0 0 0 0 0 0 0 0 0 0 0 0 0 0 0 0 0 0 0 0 0 0 0 0 0 0
0 0 0 0 0 0 0 0 0 0 0 0 0 0 0 0 0 0 0 0 0 0 0 0 0 0 0 0 0 0 0 0 0 0 0 0 0 0 0 0 0 0 0 0
0 0 0 0 0 0 0 0 0 0 0 0 0 0 0 0 0 0 0 0 0 0 0 0 0 0 0 0 0 0 0 0 0 0 0 0 0 0 0 0 0 0 0 0
0 0 0 0 0 0 0 0 0 0 0 0 0 0 0 0 0 0 0 0 0 0 0 0 0 0 0 0 0 0 0 0 0 0 0 0 0 0 0 0 0 0 0 0
0 0 0 0 0 0 0 0 0 0 0 0 0 0 0 0 0 0 0 0 0 0 0 0 0 0 0 0 0 0 0 0 0 0 0 0 0 0 0 0 0 0 0 0
0 0 0 0 0 0 0 0 0 0 0 0 0 0 0 0 0 0 0 0 0 0 0 0 0 0 0 0 0 0 0 0 0 0 0 0 0 0 0 0 0 0 0 0
0 0 0 0 0 0 0 0 0 0 0 0 0 0 0 0 0 0 0 0 0 0 0 0 0 0 0 0 0 0 0 0 0 0 0 0 0 0 0 0 0 0 0 0
0 0 0 0 0 0 0 0 0 0 0 0 0 0 0 0 0 0 0 0 0 0 0 0 0 0 0 0 0 0 0 0 0 0 0 0 0 0 0 0 0 0 0 0
0 0 0 0 0 0 0 0 0 0 0 0 0 0 0 0 0 0 0 0 0 0 0 0 0 0 0 0 0 0 0 0 0 0 0 0 0 0 0 0 0 0 0 0
0 0 0 0 0 0 0 0 0 0 0 0 0 0 0 0 0 0 0 0 0 0 0 0 0 0 0 0 0 0 0 0 0 0 0 0 0 0 0 0 0 0 0 0
0 0 0 0 0 0 0 0 0 0 0 0 0 0 0 0 0 0 0 0 0 0 0 0 0 0 0 0 0 0 0 0 0 0 0 0 0 0 0 0 0 0 0 0
0 0 0 0 0 0 0 0 0 0 0 0 0 0 0 0 0 0 0 0 0 0 0 0 0 0 0 0 0 0 0 0 0 0 0 0 0 0 0 0 0 0 0 0
0 0 0 0 0 0 0 0 0 0 0 0 0 0 0 0 0 0 0 0 0 0 0 0 0 0 0 0 0 0 0 0 0 0 0 0 0 0 0 0 0 0 0 0
Wind_Speed
6 7 10 12 12 8 8 9 9 7 4 8 11 10 7 5 6 6 6 6 6 6 5 5 6 7 7 8 9 10 10 10 8 6 6 5 5 4 3 3 3 3 3 3
6 10 10 9 9 7 8 8 7 4 3 6 8 9 7 6 7 6 6 5 5 4 4 5 5 6 7 9 10 10 11 11 10 7 6 4 4 4 3 3 3 3 3 3
9 5 7 9 9 9 9 9 7 4 2 4 5 8 8 5 4 3 3 3 4 4 5 5 6 7 7 8 10 9 11 11 10 9 6 5 4 4 4 4 3 3 3 3
6 4 7 9 10 10 9 8 6 6 6 4 6 6 7 6 6 4 3 3 4 4 4 5 6 6 7 7 7 9 10 10 10 10 9 9 6 6 5 4 4 4 3 3
4 4 8 9 9 9 5 5 6 6 6 4 7 7 5 5 6 6 5 4 4 3 4 5 5 6 6 6 6 7 9 10 10 10 9 9 7 5 4 5 5 4 4 3
1 2 3 4 4 5 4 4 2 3 4 7 9 9 6 4 6 5 5 4 3 3 3 3 3 4 4 5 6 6 9 10 10 10 9 9 9 7 7 7 6 4 3 3
2 2 1 2 4 4 5 6 4 5 6 7 5 8 4 2 3 4 4 3 3 2 2 3 3 3 4 5 6 7 8 9 10 10 9 9 9 8 8 7 6 5 4 3
3 3 3 2 4 5 7 7 4 5 6 3 5 8 3 1 1 2 2 2 1 1 1 2 3 3 4 5 6 7 8 8 9 10 9 8 8 6 5 6 5 5 4 4
2 2 1 2 2 5 6 6 3 1 1 3 6 4 3 1 1 1 1 0 0 1 1 1 2 2 3 4 6 7 7 8 8 9 9 8 8 7 6 6 5 4 4 3
1 2 2 1 2 2 2 3 3 3 5 5 5 6 3 3 2 1 0 1 1 0 0 0 1 1 2 3 4 5 6 7 7 8 7 6 7 7 6 5 5 5 4 4
1 2 2 3 4 4 4 4 3 3 3 4 4 3 1 2 2 2 1 1 1 1 0 0 0 1 1 2 3 4 5 5 6 6 6 7 6 6 6 5 5 5 4 4
1 1 2 3 1 2 3 5 5 4 3 4 4 1 3 1 1 1 1 1 1 1 1 0 1 1 1 2 2 3 4 4 5 5 5 6 6 6 6 5 5 5 5 4
0 1 2 2 3 2 2 3 4 2 2 4 5 2 2 2 1 0 1 2 1 1 1 1 1 1 1 2 2 2 2 3 4 4 4 5 6 6 6 5 5 5 4 4
1 1 3 5 2 3 4 4 5 4 4 6 7 5 3 3 1 1 1 2 1 1 1 1 1 1 1 1 1 2 2 2 3 3 4 4 6 6 5 5 5 4 4 4
1 1 2 3 3 4 6 7 7 8 8 7 7 7 5 4 3 2 2 2 1 1 1 1 1 1 1 1 0 1 1 1 2 3 3 4 4 5 5 5 4 4 4 4
1 1 1 2 2 3 5 7 8 9 8 8 8 7 4 4 3 3 3 2 2 1 2 1 1 1 1 0 0 1 1 1 1 2 2 3 4 4 4 4 4 4 4 3
1 1 2 2 2 3 5 6 7 6 6 8 9 7 3 4 4 4 3 2 2 2 2 2 1 1 1 1 0 1 1 1 1 2 2 2 3 4 4 4 4 4 4 3
3 1 1 1 2 5 0 1 3 5 4 5 5 5 4 4 5 4 2 2 2 3 3 2 2 1 1 1 0 1 1 2 2 2 1 2 3 3 4 4 4 4 3 3
4 3 2 2 3 4 2 1 1 3 4 3 5 5 4 3 2 2 1 2 3 3 3 2 2 1 1 0 0 1 2 1 1 1 1 2 3 3 3 4 4 3 3 2
2 2 2 2 4 4 1 2 3 3 3 1 3 4 3 2 3 2 2 3 3 4 2 2 1 0 0 0 1 1 1 1 1 1 1 2 2 3 3 3 3 3 2 2
1 1 3 3 4 3 3 4 2 3 2 3 4 4 3 4 4 3 3 3 3 3 2 2 1 0 0 0 1 1 1 1 0 0 1 1 2 2 3 3 2 3 2 2
2 2 3 3 4 3 3 2 1 3 5 4 4 3 3 3 3 3 2 3 3 3 2 2 1 1 1 1 1 1 1 0 1 1 1 1 2 2 2 3 2 2 2 2
3 3 2 3 3 3 3 3 4 4 5 4 4 3 3 2 3 3 3 3 2 2 2 2 2 2 1 1 1 1 0 1 2 2 2 2 2 2 2 2 2 2 2 2
2 2 3 3 4 4 5 4 4 5 5 4 3 3 2 2 2 3 2 2 2 2 2 2 2 1 1 1 1 1 1 1 2 2 2 2 2 2 2 1 1 1 1 2
3 2 3 4 5 5 3 4 5 5 4 4 3 3 2 1 2 2 2 2 2 2 2 2 2 2 2 2 2 2 1 2 2 2 2 2 2 2 2 1 1 0 0 0
2 3 4 4 3 4 5 5 5 5 4 3 3 3 2 1 1 2 2 2 2 2 2 2 2 2 2 2 2 1 1 1 2 2 2 2 2 1 1 2 2 3 2 2
Wind_Direction
177 193 202 204 210 228 215 214 217 218 199 217 227 239 241 232 230 231 225 218 216 216 206 191 188 183 182 180 181 178 173 168 163 160 161 158 157 153 149 145 143 148 144 141
180 212 215 211 205 212 208 213 215 213 206 224 232 244 239 233 229 229 228 223 217 209 193 187 184 182 184 182 183 183 180 175 175 175 167 159 150 154 149 147 151 157 155 151
199 206 198 199 198 206 213 212 210 197 196 219 236 241 224 220 214 214 231 233 223 213 208 198 192 189 187 187 188 187 184 180 179 171 155 141 138 144 158 165 163 169 168 162
209 204 189 195 201 207 214 213 207 194 194 205 213 240 212 206 208 215 223 231 233 227 219 207 201 199 196 191 189 190 186 183 178 173 172 169 175 177 178 170 167 166 172 171
194 186 190 201 206 206 207 197 203 205 210 224 212 235 223 189 218 227 231 236 239 234 225 215 210 206 198 188 183 186 186 183 178 181 182 182 184 180 165 164 168 169 170 177
157 180 201 214 209 184 151 145 142 185 204 227 213 219 230 189 220 229 233 235 232 227 221 215 207 199 190 181 178 178 185 183 181 183 185 188 186 180 171 174 173 176 174 179
139 167 135 173 151 162 173 161 166 186 205 225 187 215 236 188 222 237 243 238 225 204 197 198 191 192 187 183 182 182 184 184 183 184 187 188 189 187 184 181 181 181 181 186
189 187 176 183 192 193 198 199 208 206 205 190 185 217 201 84 306 270 267 254 223 197 197 205 198 194 191 186 185 185 185 185 184 184 186 187 189 190 189 188 185 189 189 189
220 212 197 223 221 189 190 208 254 258 180 206 203 212 224 168 249 279 306 347 261 244 220 210 199 191 190 185 186 187 184 184 185 184 184 186 187 189 188 187 189 189 186 182
239 228 226 200 177 175 221 178 194 206 200 215 209 218 218 193 220 245 328 331 321 298 244 177 186 186 188 181 180 180 180 181 183 183 183 183 185 187 186 185 187 186 183 179
280 207 203 192 202 196 166 182 211 211 254 239 219 206 103 224 224 226 262 330 322 302 273 129 157 167 167 155 161 166 172 172 177 181 180 180 180 182 184 185 186 184 178 179
336 228 211 225 264 252 213 203 199 212 218 245 252 225 71 317 307 252 289 341 353 344 336 35 99 121 131 139 146 157 167 169 174 176 177 179 175 177 181 182 183 180 177 179
220 171 184 183 178 179 224 222 214 220 220 229 237 212 71 350 14 9 355 359 18 25 15 34 61 111 124 132 139 149 160 163 166 170 171 174 174 176 181 180 178 177 176 177
317 197 228 233 257 226 237 241 224 214 226 232 244 256 275 286 301 332 344 349 6 15 20 29 28 78 102 121 139 147 149 154 161 164 169 175 178 179 179 176 176 176 178 178
347 235 255 288 280 222 235 231 224 226 235 241 249 252 259 262 283 301 319 337 337 341 351 356 351 11 38 77 124 139 136 141 153 163 170 178 178 174 171 170 172 173 177 179
352 240 241 271 260 228 248 240 229 235 240 245 258 263 282 292 294 285 288 300 291 305 323 329 325 325 331 3 188 164 149 140 150 161 168 168 170 170 170 170 169 172 175 176
243 192 231 250 266 232 245 234 223 225 234 236 247 263 276 272 276 277 273 273 279 296 310 305 289 279 288 289 255 203 166 150 150 148 152 164 168 172 172 170 172 177 177 177
202 197 214 223 196 227 285 326 247 230 245 258 264 281 273 282 292 284 264 260 285 294 295 294 298 308 307 308 304 159 152 150 153 152 157 169 168 170 174 175 178 182 181 182
213 201 206 215 229 250 274 322 285 238 261 264 266 283 305 323 296 254 335 307 292 294 297 291 285 294 281 284 46 140 146 148 157 166 176 175 175 172 178 183 181 180 179 183
133 205 225 219 238 246 331 355 317 244 248 330 283 279 287 274 262 275 340 321 321 324 325 324 321 356 141 100 119 144 150 155 172 187 189 176 180 181 185 185 176 172 176 184
177 195 224 237 251 266 354 328 279 221 311 340 303 286 267 268 292 319 317 321 332 335 339 347 358 26 53 112 142 148 151 167 162 136 143 152 169 178 176 170 164 159 160 168
233 224 219 227 235 254 10 341 278 327 329 315 312 310 301 305 326 327 335 344 350 357 4 7 13 27 41 103 140 144 146 132 115 123 128 135 146 154 164 155 149 152 155 161
231 256 268 242 273 338 323 313 324 322 311 315 319 323 318 312 319 333 340 349 352 358 5 14 38 48 48 66 94 115 90 127 128 125 123 122 121 128 144 145 143 149 154 160
264 282 256 261 272 299 306 311 330 330 323 326 324 316 302 299 311 327 335 344 354 356 4 14 36 42 38 36 38 53 102 135 136 132 122 120 121 119 118 119 131 146 159 162
286 252 258 263 291 308 297 324 332 334 337 346 347 330 308 288 299 315 325 335 345 352 358 9 21 23 21 35 48 54 85 132 132 125 122 123 118 118 112 99 84 95 169 216
243 245 254 272 296 283 290 309 319 321 330 337 339 338 339 327 314 327 330 336 340 350 359 8 18 24 25 35 47 46 68 131 134 132 128 120 115 114 111 106 81 57 49 36